Weather History for CYUL - September, 2013

Change the Weather History Date:

Friday, September 6, 2013

  Actual Average Record
Temperature  
Mean Temperature 56 °F -  
Max Temperature 68 °F 72 °F 83 °F (2012)
Min Temperature 43 °F 55 °F 42 °F (2000)
Degree Days  
Heating Degree Days 10    
Growing Degree Days 6 (Base 50)    
Moisture  
Dew Point 43 °F    
Average Humidity 60    
Maximum Humidity 87    
Minimum Humidity 33    
Precipitation  
Precipitation 0.00 in - - ()
Sea Level Pressure  
Sea Level Pressure 30.14 in    
Wind  
Wind Speed 9 mph ()    
Max Wind Speed 24 mph    
Max Gust Speed 31 mph    
Visibility 15.0 miles    
Events Rain    
Averages and records for this station are not official NWS values.
T = Trace of Precipitation, MM = Missing Value Source: Averaged Metar Reports

Daily Weather History Graph

Daily Weather History Graph

Search for Another Location

Airport or City:

Trip Planner

Search our weather history database for the weather conditions in past years. The results will help you decide how hot, cold, wet, or windy it might be!

Date:

Astronomy

Sep. 06, 2013 Rise Set
Actual Time 6:22 AM EDT 7:22 PM EDT
Civil Twilight 5:52 AM EDT 7:52 PM EDT
Nautical Twilight 5:16 AM EDT 8:28 PM EDT
Astronomical Twilight 4:38 AM EDT 9:06 PM EDT
Moon 7:38 AM EDT (9/6) 7:38 PM EDT (9/6)
Length of Visible Light 14h 00m
Length of Day
13h 00m
New Moon, 1% of the Moon is Illuminated
Sep 6
New Moon
Sep 12
First Quarter
Sep 19
Full
Sep 26
Last Quarter
Oct 4
New

Hourly Weather History & Observations

Time (EDT) Temp. Windchill Dew Point Humidity Pressure Visibility Wind Dir Wind Speed Gust Speed Precip Events Conditions
12:00 AM 50.0 °F - 41.0 °F 71% 30.17 in 15.0 mi West 4.6 mph - N/A   Partly Cloudy
1:00 AM 48.2 °F - 41.0 °F 76% 30.18 in 15.0 mi WNW 4.6 mph - N/A   Clear
2:00 AM 48 °F - 42 °F 71% 30.18 in 15 mi WNW 4.6 mph - -  
2:00 AM 48.2 °F - 41.0 °F 76% 30.18 in 15.0 mi WNW 4.6 mph - N/A   Clear
3:00 AM 44.6 °F 43.1 °F 41.0 °F 87% 30.18 in 15.0 mi North 3.5 mph - N/A   Partly Cloudy
4:00 AM 46.4 °F 45.2 °F 41.0 °F 81% 30.19 in 15.0 mi SE 3.5 mph - N/A   Clear
5:00 AM 46.4 °F 42.4 °F 41.0 °F 81% 30.20 in 15.0 mi WSW 8.1 mph - N/A   Partly Cloudy
6:00 AM 44.6 °F 40.2 °F 39.2 °F 81% 30.21 in 15.0 mi WSW 8.1 mph - N/A   Partly Cloudy
7:00 AM 46.4 °F 42.9 °F 39.2 °F 76% 30.22 in 15.0 mi SW 6.9 mph - N/A   Partly Cloudy
8:00 AM 50 °F - 41 °F 62% 30.23 in 15 mi SW 6.9 mph - -   Clear
8:00 AM 50.0 °F - 41.0 °F 71% 30.23 in 15.0 mi SW 8.1 mph - N/A   Partly Cloudy
9:00 AM 55.4 °F - 39.2 °F 54% 30.23 in 30.0 mi WSW 12.7 mph - N/A   Partly Cloudy
10:00 AM 59.0 °F - 39.2 °F 48% 30.22 in 30.0 mi WSW 13.8 mph 23.0 mph N/A   Partly Cloudy
11:00 AM 62.6 °F - 44.6 °F 52% 30.20 in 30.0 mi SW 13.8 mph - N/A   Partly Cloudy
12:00 PM 64.4 °F - 42.8 °F 45% 30.19 in 30.0 mi SW 15.0 mph 21.9 mph N/A   Partly Cloudy
1:00 PM 66.2 °F - 42.8 °F 43% 30.16 in 30.0 mi SW 15.0 mph 25.3 mph N/A   Partly Cloudy
2:00 PM 67 °F - 45 °F 33% 30.14 in 28 mi SW 19.6 mph - -   Scattered Clouds
2:00 PM 66.2 °F - 44.6 °F 46% 30.14 in 30.0 mi SW 18.4 mph 26.5 mph N/A   Partly Cloudy
3:00 PM 68.0 °F - 46.4 °F 46% 30.11 in 30.0 mi SW 19.6 mph 29.9 mph N/A   Partly Cloudy
4:00 PM 68.0 °F - 46.4 °F 46% 30.08 in 30.0 mi SW 19.6 mph 26.5 mph N/A   Scattered Clouds
5:00 PM 66.2 °F - 44.6 °F 46% 30.07 in 30.0 mi SW 24.2 mph 31.1 mph N/A   Mostly Cloudy
6:00 PM 66.2 °F - 44.6 °F 46% 30.05 in 30.0 mi SW 20.7 mph - N/A   Mostly Cloudy
7:00 PM 64.4 °F - 42.8 °F 45% 30.05 in 30.0 mi WSW 13.8 mph 20.7 mph N/A   Mostly Cloudy
8:00 PM 62.6 °F - 42.8 °F 48% 30.04 in 15.0 mi WSW 16.1 mph 24.2 mph N/A   Mostly Cloudy
9:00 PM 62.6 °F - 44.6 °F 52% 30.04 in 15.0 mi SW 18.4 mph 26.5 mph N/A   Mostly Cloudy
9:51 PM 62.6 °F - 50.0 °F 63% 30.02 in 15.0 mi SW 13.8 mph - N/A Rain Light Rain Showers
10:00 PM 62.6 °F - 50.0 °F 63% 30.02 in 15.0 mi SW 15.0 mph 26.5 mph N/A Rain Light Rain Showers
10:22 PM 62.6 °F - 50.0 °F 63% 30.01 in 15.0 mi SW 17.3 mph 24.2 mph N/A   Mostly Cloudy
11:00 PM 60.8 °F - 50.0 °F 68% 30.01 in 15.0 mi SSW 18.4 mph 25.3 mph N/A   Mostly Cloudy